sat.trackr.live / text

‹ back to catalog

DCS-1

NORAD 67263 · 2025-313R

PAYLOAD ACTIVE UNKNOWN

§ Identity

Operator
Country
CIS
Launch date
2025-12-28
Launch site
VOSTO
Launch vehicle
Mass (kg)
RCS (m²)

External: N2YO · Heavens-Above · Gunter

§ Orbital elements

Epoch: 2026-05-25T04:32:27.902112Z

Period
94.55 min
Inclination
97.3956°
Eccentricity
0.0016205
Mean motion
15.22946993 rev/d
Perigee alt
485.8 km
Apogee alt
508.1 km
Semi-major
6,875.1 km
B*
3.5630e-4
RAAN
220.2611°
Arg perigee
86.6467°
Mean anomaly
273.6623°
Rev number
2,245

§ Raw data

DCS-11 67263U 25313R   26145.18921183  .00008327  00000+0  35630-3 0  99982 67263  97.3956 220.2611 0016205  86.6467 273.6623 15.22946993 22452

JSON: /api/v1/satellites/67263 · /tle

For live sub-satellite position, see the globe view (requires WebGL).

§ Visibility from observer

Set your observer location to see the next 7 days of passes ≥ 10°. The values pass through the URL so the page stays shareable.

No JS? Fill the form by hand. The geolocation button needs JavaScript.